Location: Unnamed
(51.5169°N, 0.1311°W)
Time: 07:04:40
(UTC+01:00)

Vanguard 1 - Pass Details

Date: 16 August 2024
Orbit: 649 x 3825 km, 34.2° (Epoch: 16 September)

Event Time Altitude Azimuth Distance (km) Brightness Sun altitude
Rises 01:05:46 0° 251° (WSW) 4,558 13.3 -24.8°
Reaches altitude 10° 01:08:37 10° 243° (WSW) 3,922 12.9 -24.8°
Enters shadow 01:13:41 28° 216° (SW) 3,267 12.2 -24.8°
Exits shadow 01:17:07 35° 190° (S) 3,284 12.1 -24.8°
Maximum altitude 01:18:14 36° 182° (S) 3,369 12.2 -24.8°
Drops below altitude 10° 01:33:51 10° 126° (SE) 6,332 13.9 -24.5°
Sets 01:40:06 0° 119° (ESE) 7,687 14.4 -24.4°
